[[{"header":{"parameterUnit":"m.s-1","parameterCategory":1,"la1":30.2991,"la2":30.254,"lo1":-89.0895,"lo2":-89.0444,"dy":0.0017,"dx":0.0017,"nx":28,"ny":28,"refTime":"2023-03-18T21:00:00:Z","depth":0,"parameterNumber":2,"parameterNumberName":"U-component_of_WINDS"},"data":[0,0,0,0,0,0,0,0,0,0,0,0,0,0,0,0,0,0,0,0,0,0,0,0,0,0,0,0,0,0,0,0,0,0,0,0,0,0,0,0,0,0,0,0,0,0,0,0,0,0,0,0,0,0,0,0,0,0,-1.0637,-1.0636,0,-1.0569,-1.0568,-1.0567,-1.0495,-1.0494,-1.0493,-1.0492,-1.0423,-1.0422,-1.0421,0,0,0,0,0,0,0,0,0,0,0,0,0,-1.0706,-1.0705,-1.0637,-1.0636,-1.0635,-1.0569,-1.0568,-1.0567,-1.0496,-1.0494,-1.0493,-1.0492,-1.0423,-1.0422,-1.0421,0,0,0,0,0,0,0,0,0,0,0,0,0,-1.0661,-1.0705,-1.0637,-1.0592,-1.0587,-1.0569,-1.0568,-1.0567,-1.0496,-1.0494,-1.0493,-1.0491,-1.0424,-1.0422,-1.0421,-1.0442,0,0,-1.0417,-1.0416,0,0,0,0,0,0,0,0,-1.0663,-1.0658,-1.0599,-1.0595,-1.059,-1.0539,-1.0567,-1.0525,-1.0496,-1.053,-1.0492,-1.0491,-1.0463,-1.0458,-1.0448,-1.0439,-1.0436,-1.0416,-1.0416,-1.0415,-1.0415,0,0,0,0,0,0,0,-1.0667,-1.0661,-1.061,-1.0599,-1.0593,-1.0575,-1.0567,-1.0558,-1.0506,-1.0527,-1.0522,-1.0515,-1.046,-1.045,-1.0446,-1.0435,-1.0417,-1.0415,-1.0414,-1.0414,-1.044,-1.0441,0,0,0,0,0,0,-1.0677,-1.0664,-1.0612,-1.0608,-1.0624,-1.0575,-1.0566,-1.0557,-1.0506,-1.0497,-1.0516,-1.0512,-1.0453,-1.0448,-1.0444,-1.0466,-1.0415,-1.0414,-1.0413,-1.0438,-1.044,-1.0442,0,0,0,0,0,0,-1.0678,-1.0673,-1.0615,-1.0634,-1.0626,-1.0575,-1.0566,-1.0556,-1.0546,-1.0497,-1.0488,-1.0516,-1.0452,-1.0446,-1.0443,-1.0463,-1.0413,-1.0412,-1.0437,-1.0439,-1.0441,-1.0511,0,0,0,0,0,0,-1.0681,-1.0674,-1.0682,-1.0635,-1.0625,-1.0616,-1.0567,-1.0556,-1.0544,-1.0538,-1.0494,-1.0486,-1.045,-1.0446,-1.0442,-1.046,-1.0411,-1.0435,-1.0438,-1.044,-1.0507,-1.0515,-1.0523,0,0,0,0,0,-1.0683,-1.0704,-1.0682,-1.0676,-1.0634,-1.0617,-1.0611,-1.057,-1.0546,-1.0553,-1.0522,-1.0487,-1.0461,-1.0446,-1.0441,-1.0459,-1.0433,-1.0437,-1.044,-1.0503,-1.0514,-1.0522,0,0,0,0,0,0,-1.0754,-1.0697,-1.0672,-1.0679,-1.0653,-1.0605,-1.0613,-1.0582,-1.0563,-1.0558,-1.0507,-1.0498,-1.0502,-1.0479,-1.0464,-1.0477,-1.0442,-1.0445,-1.0492,-1.0501,-1.0509,-1.0515,-1.041,0,0,0,0,0,-1.077,-1.0762,-1.0712,-1.0722,-1.0711,-1.0665,-1.0656,-1.0626,-1.0598,-1.0587,-1.0555,-1.0529,-1.0514,-1.0506,-1.049,-1.0502,-1.0492,-1.0512,-1.052,-1.0527,-1.053,-1.0536,-1.0544,-1.0453,-1.0453,-1.0453,0,0,-1.0804,-1.0772,-1.077,-1.0736,-1.0713,-1.0705,-1.0656,-1.065,-1.0644,-1.0586,-1.0582,-1.0557,-1.0525,-1.053,-1.0531,-1.0512,-1.0553,-1.0531,-1.0537,-1.0537,-1.054,-1.0549,-1.0557,-1.0455,-1.0455,-1.0455,0,0,-1.0862,-1.0836,-1.0842,-1.082,-1.0785,-1.0754,-1.0756,-1.0712,-1.0694,-1.0689,-1.0645,-1.0637,-1.0613,-1.0592,-1.0578,-1.0628,-1.0596,-1.0624,-1.0666,-1.0672,-1.0679,-1.0685,-1.0704,-1.0711,-1.0627,-1.0627,-1.0627,0,-1.0908,-1.0895,-1.0849,-1.0846,-1.0833,-1.0779,-1.0785,-1.0765,-1.0728,-1.072,-1.0699,-1.0668,-1.0643,-1.0642,-1.0655,-1.0645,-1.0645,-1.0629,-1.0682,-1.0687,-1.0692,-1.071,-1.0717,-1.0631,-1.063,-1.063,-1.063,0,-1.0954,-1.0946,-1.0955,-1.092,-1.0907,-1.0908,-1.0863,-1.0855,-1.0826,-1.0797,-1.0793,-1.076,-1.0737,-1.0734,-1.0706,-1.073,-1.072,-1.0691,-1.0655,-1.0706,-1.0721,-1.0727,-1.0636,-1.0635,-1.0634,-1.0633,0,0,-1.1056,-1.0995,-1.0999,-1.0983,-1.094,-1.0933,-1.0932,-1.0909,-1.0904,-1.0879,-1.0878,-1.0859,-1.0832,-1.0816,-1.0785,-1.079,-1.0832,-1.076,-1.0758,-1.0776,-1.0858,-1.0881,-1.0889,-1.0809,-1.081,-1.0811,-1.0861,0,-1.1107,-1.1102,-1.1061,-1.1068,-1.106,-1.1008,-1.1007,-1.0981,-1.0954,-1.0943,-1.0912,-1.09,-1.0865,-1.0855,-1.0858,-1.0826,-1.0848,-1.0822,-1.0808,-1.0808,-1.082,-1.0897,-1.0921,-1.097,-1.0866,-1.0867,-1.0868,0,-1.1167,-1.1146,-1.1153,-1.111,-1.1105,-1.1105,-1.1081,-1.1071,-1.104,-1.102,-1.1003,-1.0967,-1.0963,-1.0928,-1.0922,-1.0905,-1.0897,-1.0881,-1.0881,-1.088,-1.0843,-1.0899,-1.0984,-1.0992,-1.0877,-1.0876,-1.0875,0,-1.1243,-1.1216,-1.1216,-1.1203,-1.1154,-1.1155,-1.1134,-1.1102,-1.1091,-1.107,-1.1062,-1.104,-1.1029,-1.1013,-1.0973,-1.0951,-1.0972,-1.0933,-1.0956,-1.0957,-1.0964,-1.0964,-1.105,-1.0956,-1.0956,-1.0956,-1.0956,0,-1.1305,-1.1312,-1.1249,-1.125,-1.1255,-1.1207,-1.1214,-1.1188,-1.116,-1.1154,-1.1108,-1.1104,-1.1049,-1.1039,-1.1007,-1.1008,-1.1003,-1.0987,-1.0979,-1.0992,-1.0994,-1.0987,-1.0983,-1.0958,-1.0957,-1.0957,-1.0956,0,-1.1391,-1.1349,-1.1347,-1.13,-1.1288,-1.1294,-1.1254,-1.1252,-1.1222,-1.1216,-1.1211,-1.1164,-1.1149,-1.1107,-1.1081,-1.106,-1.107,-1.1054,-1.1081,-1.1076,-1.1101,-1.11,-1.1187,-1.1196,-1.1095,-1.1096,-1.1097,0,-1.1435,-1.1438,-1.1391,-1.1385,-1.1366,-1.1355,-1.1344,-1.1296,-1.1286,-1.1251,-1.1254,-1.1236,-1.1219,-1.1198,-1.1162,-1.1142,-1.1125,-1.1157,-1.1122,-1.1136,-1.1128,-1.1129,-1.1129,-1.1166,-1.1167,-1.1168,-1.1169,0,-1.1517,-1.1496,-1.1481,-1.1459,-1.1447,-1.1427,-1.1405,-1.1402,-1.1348,-1.1339,-1.1324,-1.1311,-1.1285,-1.1268,-1.1243,-1.1221,-1.1187,-1.118,-1.1184,-1.1199,-1.1215,-1.1208,-1.1104,-1.1178,-1.1177,-1.1177,-1.1176,-1.1176,-1.1584,-1.1585,-1.1552,-1.1537,-1.1515,-1.1495,-1.1492,-1.1461,-1.1447,-1.1423,-1.1395,-1.1383,-1.1352,-1.1314,-1.1295,-1.1285,-1.1267,-1.1273,-1.1275,-1.1277,-1.1284,-1.1215,-1.128,-1.128,-1.128,-1.1279,-1.1279,0,-1.1665,-1.1641,-1.1628,-1.1598,-1.1586,-1.1554,-1.1527,-1.152,-1.151,-1.1484,-1.1468,-1.1451,-1.1434,-1.1395,-1.1375,-1.1374,-1.1358,-1.1371,-1.1371,-1.1367,-1.1301,-1.13,-1.1384,-1.1384,-1.1384,-1.1384,-1.1384,-1.1384,-1.1706,-1.1706,-1.1682,-1.1671,-1.1646,-1.1634,-1.1622,-1.1604,-1.1583,-1.1566,-1.1551,-1.1526,-1.1495,-1.1472,-1.1455,-1.1444,-1.1439,-1.1457,-1.1442,-1.1381,-1.1371,-1.1362,-1.1361,-1.1456,-1.1456,-1.1508,-1.1509,-1.1509]},{"header":{"parameterUnit":"m.s-1","parameterCategory":1,"la1":30.2991,"la2":30.254,"lo1":-89.0895,"lo2":-89.0444,"dy":0.0017,"dx":0.0017,"nx":28,"ny":28,"refTime":"2023-03-18T21:00:00:Z","depth":0,"parameterNumber":3,"parameterNumberName":"V-component_of_WINDS"},"data":[0,0,0,0,0,0,0,0,0,0,0,0,0,0,0,0,0,0,0,0,0,0,0,0,0,0,0,0,0,0,0,0,0,0,0,0,0,0,0,0,0,0,0,0,0,0,0,0,0,0,0,0,0,0,0,0,0,0,-2.9189,-2.919,0,-2.9221,-2.9222,-2.9222,-2.9202,-2.9201,-2.9201,-2.92,-2.923,-2.9232,-2.9234,0,0,0,0,0,0,0,0,0,0,0,0,0,-2.911,-2.9111,-2.9189,-2.919,-2.919,-2.9221,-2.9222,-2.9222,-2.9203,-2.9201,-2.92,-2.9199,-2.923,-2.9232,-2.9234,0,0,0,0,0,0,0,0,0,0,0,0,0,-2.9143,-2.9112,-2.9189,-2.9184,-2.9184,-2.9221,-2.9222,-2.9222,-2.9203,-2.9201,-2.92,-2.9199,-2.9229,-2.9232,-2.9234,-2.9278,0,0,-2.9242,-2.9243,0,0,0,0,0,0,0,0,-2.9141,-2.9146,-2.9184,-2.9184,-2.9184,-2.9207,-2.9205,-2.9241,-2.9203,-2.9196,-2.92,-2.9198,-2.9223,-2.9226,-2.9235,-2.9279,-2.928,-2.9242,-2.9244,-2.9245,-2.9245,0,0,0,0,0,0,0,-2.9139,-2.9145,-2.9202,-2.9185,-2.9185,-2.918,-2.9183,-2.9212,-2.9217,-2.9196,-2.9195,-2.9199,-2.9223,-2.9233,-2.9236,-2.9281,-2.9242,-2.9244,-2.9246,-2.9247,-2.9364,-2.9366,0,0,0,0,0,0,-2.9137,-2.9143,-2.9201,-2.9203,-2.9159,-2.9182,-2.9186,-2.9201,-2.9217,-2.9218,-2.92,-2.9198,-2.9229,-2.9233,-2.9237,-2.9291,-2.9245,-2.9247,-2.9249,-2.9362,-2.9364,-2.9366,0,0,0,0,0,0,-2.9136,-2.9143,-2.92,-2.9173,-2.9179,-2.9185,-2.9202,-2.9202,-2.9212,-2.922,-2.922,-2.9209,-2.9228,-2.9233,-2.9268,-2.9292,-2.9248,-2.9251,-2.9361,-2.9363,-2.9365,-2.9398,0,0,0,0,0,0,-2.9133,-2.9142,-2.9159,-2.9173,-2.9181,-2.9231,-2.9203,-2.9204,-2.9217,-2.9214,-2.9228,-2.9229,-2.9228,-2.9265,-2.9271,-2.9294,-2.9253,-2.9359,-2.9362,-2.9364,-2.9395,-2.9401,-2.9407,0,0,0,0,0,-2.9131,-2.9166,-2.916,-2.9167,-2.9202,-2.9232,-2.9237,-2.9235,-2.9219,-2.9236,-2.9241,-2.9229,-2.9288,-2.9268,-2.9275,-2.93,-2.9357,-2.9361,-2.9364,-2.9392,-2.94,-2.9407,0,0,0,0,0,0,-2.9153,-2.9168,-2.9161,-2.9202,-2.9216,-2.9229,-2.925,-2.9242,-2.9261,-2.9258,-2.9253,-2.9257,-2.9294,-2.93,-2.9278,-2.9344,-2.932,-2.9325,-2.9339,-2.9346,-2.9352,-2.9351,-2.9255,0,0,0,0,0,-2.9163,-2.9187,-2.9198,-2.9233,-2.9241,-2.9244,-2.9257,-2.9255,-2.9269,-2.9274,-2.9282,-2.9296,-2.9317,-2.9332,-2.9352,-2.9395,-2.9399,-2.9415,-2.9421,-2.9426,-2.9431,-2.9457,-2.9465,-2.9378,-2.9378,-2.9378,0,0,-2.9184,-2.9194,-2.9209,-2.9238,-2.9249,-2.9274,-2.9249,-2.9276,-2.9295,-2.9278,-2.9313,-2.9319,-2.9334,-2.9374,-2.9391,-2.938,-2.9456,-2.9431,-2.9434,-2.9437,-2.9461,-2.9469,-2.9477,-2.938,-2.938,-2.938,0,0,-2.9234,-2.9244,-2.9276,-2.9287,-2.9304,-2.9307,-2.9314,-2.9328,-2.9332,-2.9367,-2.9356,-2.9377,-2.9414,-2.9426,-2.9437,-2.9493,-2.9484,-2.95,-2.9531,-2.9556,-2.9563,-2.9569,-2.9591,-2.9599,-2.9504,-2.9504,-2.9504,0,-2.9258,-2.9295,-2.9292,-2.9321,-2.9335,-2.9322,-2.9354,-2.9365,-2.9387,-2.9397,-2.9383,-2.9431,-2.944,-2.9484,-2.9498,-2.9506,-2.9515,-2.9499,-2.9562,-2.9568,-2.9574,-2.9595,-2.9603,-2.9506,-2.9506,-2.9506,-2.9506,0,-2.9324,-2.935,-2.9374,-2.9398,-2.9413,-2.9443,-2.9445,-2.9461,-2.9457,-2.9461,-2.9497,-2.9508,-2.9531,-2.9541,-2.9536,-2.9584,-2.9577,-2.9563,-2.9539,-2.9584,-2.9604,-2.9612,-2.9509,-2.9509,-2.9508,-2.9507,0,0,-2.939,-2.9413,-2.9422,-2.9434,-2.9452,-2.9472,-2.9502,-2.9526,-2.954,-2.9556,-2.9582,-2.9614,-2.9602,-2.9614,-2.9611,-2.9632,-2.9679,-2.9616,-2.9616,-2.9629,-2.9735,-2.9748,-2.9757,-2.9672,-2.9674,-2.9675,-2.9735,0,-2.9444,-2.9498,-2.9497,-2.9546,-2.9571,-2.956,-2.9586,-2.96,-2.9604,-2.9626,-2.963,-2.9654,-2.9635,-2.9643,-2.9664,-2.9669,-2.9701,-2.9665,-2.9697,-2.9699,-2.9696,-2.9767,-2.978,-2.9836,-2.9742,-2.9744,-2.9745,0,-2.9514,-2.9534,-2.9587,-2.9603,-2.9614,-2.9637,-2.966,-2.9681,-2.9697,-2.9698,-2.9713,-2.9707,-2.9737,-2.9711,-2.9754,-2.973,-2.9743,-2.9747,-2.975,-2.9754,-2.9726,-2.9776,-2.9853,-2.9863,-2.9756,-2.9755,-2.9755,0,-2.956,-2.96,-2.9637,-2.9647,-2.9666,-2.9684,-2.9693,-2.9707,-2.9722,-2.9741,-2.9751,-2.9773,-2.9786,-2.9803,-2.9803,-2.9784,-2.9847,-2.9821,-2.985,-2.9851,-2.9866,-2.9865,-2.9949,-2.987,-2.987,-2.987,-2.987,0,-2.9621,-2.9655,-2.9659,-2.9682,-2.9719,-2.9717,-2.9754,-2.9761,-2.9774,-2.9799,-2.9788,-2.9811,-2.9809,-2.9832,-2.9832,-2.9869,-2.9874,-2.9877,-2.9877,-2.9879,-2.9879,-2.9889,-2.9886,-2.9872,-2.9872,-2.9871,-2.9871,0,-2.968,-2.9684,-2.9724,-2.974,-2.9745,-2.9772,-2.9785,-2.9807,-2.9811,-2.9842,-2.9849,-2.9855,-2.9882,-2.9883,-2.9913,-2.9913,-2.9959,-2.9953,-2.9954,-2.9954,-2.9985,-2.9983,-3.0079,-3.0093,-3.0003,-3.0004,-3.0005,0,-2.972,-2.9746,-2.9765,-2.9781,-2.9792,-2.9817,-2.9833,-2.9832,-2.9849,-2.987,-2.989,-2.9916,-2.9937,-2.9981,-2.9988,-3.0011,-3.0008,-3.004,-3.0011,-3.0013,-3.0011,-3.0011,-3.0014,-3.0046,-3.0047,-3.0048,-3.0048,0,-2.9792,-2.9793,-2.9816,-2.9842,-2.9861,-2.988,-2.9898,-2.9912,-2.9913,-2.9932,-2.9961,-2.9977,-3.0009,-3.0036,-3.0059,-3.0068,-3.0059,-3.0057,-3.0066,-3.007,-3.007,-3.0073,-2.9972,-3.0055,-3.0055,-3.0054,-3.0054,-3.0054,-2.9844,-2.9867,-2.9885,-2.9912,-2.9926,-2.9943,-2.9966,-2.9973,-2.9997,-3.0024,-3.0021,-3.0053,-3.0069,-3.01,-3.011,-3.0135,-3.0124,-3.0136,-3.0139,-3.0143,-3.0148,-3.0065,-3.0139,-3.0139,-3.0138,-3.0138,-3.0138,0,-2.9917,-2.9928,-2.9953,-2.998,-3.0001,-2.9991,-3.0011,-3.003,-3.0058,-3.0074,-3.0096,-3.0129,-3.0156,-3.0165,-3.019,-3.0208,-3.0205,-3.0215,-3.0215,-3.0218,-3.0155,-3.0146,-3.0218,-3.0218,-3.0218,-3.0218,-3.0218,-3.0218,-2.9958,-2.9998,-3.0001,-3.0047,-3.0058,-3.009,-3.0103,-3.0119,-3.0132,-3.017,-3.0193,-3.0199,-3.0212,-3.0239,-3.0263,-3.0265,-3.0275,-3.0288,-3.0288,-3.023,-3.0222,-3.0214,-3.0206,-3.029,-3.029,-3.035,-3.035,-3.0351]}]]